Wind_Speed
8 10 11 13 15 16 16 18 19 19 18 18 19 18 18 18 18 18 18 18 17 17 18 18 18 19 20 21 21 22 22 23 24 23 23 24 25 25 25 25 25 25 25
7 9 10 11 13 13 15 16 18 19 19 19 19 18 18 17 18 19 19 19 19 20 20 21 22 22 23 24 24 24 25 26 26 27 27 27 27 28 28 28 28 28 28
5 7 8 10 11 12 13 14 15 16 17 17 17 17 17 18 19 20 20 21 22 22 23 24 25 26 26 27 27 27 28 28 29 30 30 31 30 31 31 32 32 32 32
6 7 7 9 11 12 13 14 15 16 16 17 17 18 19 20 21 21 22 23 23 24 25 26 27 28 29 29 29 30 31 31 32 32 33 34 34 35 35 35 35 36 36
6 7 7 9 10 11 12 14 15 17 18 19 20 20 21 21 22 23 24 25 26 27 27 28 29 30 30 32 32 33 34 35 36 36 37 37 37 38 37 37 37 37 37
7 8 9 9 11 12 13 14 16 17 18 19 20 21 21 23 24 25 26 27 28 29 29 30 31 31 32 33 34 36 37 38 39 40 39 40 40 41 41 41 40 40 40
8 8 9 10 11 13 14 15 16 17 18 19 21 22 23 24 26 27 28 29 29 30 31 32 33 34 35 36 37 38 38 39 40 41 41 42 43 43 43 42 43 43 43
11 11 11 12 13 13 15 17 18 20 21 21 23 24 25 25 25 26 28 29 30 31 32 33 35 36 37 38 38 38 39 40 41 42 43 44 44 44 45 45 46 46 46
13 13 13 14 15 16 16 16 17 18 20 21 22 23 24 25 26 28 29 30 31 32 33 35 36 37 38 39 40 40 41 41 43 44 44 44 45 46 47 48 49 49 48
16 16 15 15 16 17 18 18 19 19 20 21 23 24 25 26 27 29 31 31 33 34 35 37 38 39 41 42 42 42 43 43 44 45 45 46 47 47 48 50 50 51 51
18 19 19 19 18 19 20 20 21 21 22 24 25 26 26 28 29 31 32 33 34 36 36 38 39 39 40 41 42 43 44 45 46 46 47 47 48 50 51 52 53 54 53
20 21 21 21 21 21 22 23 23 24 25 26 27 27 28 29 31 32 33 34 36 37 38 38 39 40 41 41 43 44 45 46 47 48 49 49 51 52 52 52 53 54 55
22 23 23 24 24 24 25 25 24 24 25 26 28 30 30 31 32 33 35 36 37 38 39 40 41 42 43 44 45 47 48 49 50 50 51 52 52 53 53 52 52 53 54
25 25 25 26 26 25 25 26 26 27 28 29 30 31 32 33 34 35 36 38 38 39 41 42 43 44 46 47 48 50 51 51 52 52 53 53 54 54 54 54 54 55 55
27 28 28 28 29 28 29 30 30 30 30 31 31 32 34 35 36 37 38 39 40 42 43 44 46 47 49 50 51 53 53 54 54 54 55 55 56 56 56 56 56 56 56
29 29 29 30 30 30 30 31 31 32 32 33 34 35 35 36 36 38 39 40 42 44 46 47 49 51 52 53 53 54 55 55 55 56 57 57 57 56 56 56 55 55 53
29 29 29 30 30 30 31 32 32 33 33 34 34 35 36 36 38 40 41 43 46 48 49 51 52 53 54 54 54 55 55 55 56 56 56 55 54 54 53 52 51 50 49
30 30 31 31 31 31 31 32 32 32 33 33 34 35 37 39 41 43 45 47 49 51 52 52 53 54 54 54 54 54 54 54 54 53 53 52 51 51 50 49 48 47 47
30 30 29 28 28 29 30 31 32 33 34 35 37 39 40 42 44 46 47 49 51 52 52 53 53 53 52 52 52 52 52 51 50 49 49 49 48 47 46 45 44 43 42
27 27 27 27 27 28 30 31 33 35 37 38 40 42 44 45 47 48 49 50 51 51 52 52 52 52 52 51 50 50 49 48 47 46 46 45 44 43 43 42 42 41 40
24 24 25 27 28 29 31 33 35 37 40 42 43 45 46 47 48 49 50 50 51 51 51 51 50 50 49 48 47 46 46 45 44 43 42 41 41 41 40 40 39 38 37
23 24 26 27 30 32 34 36 38 40 41 43 44 45 46 47 48 49 50 50 50 49 49 48 47 46 45 44 43 42 42 41 40 39 39 38 37 37 36 36 36 35 33
24 26 28 30 32 34 36 37 39 41 42 43 45 46 47 48 48 49 48 47 46 46 45 43 42 41 41 40 40 39 38 37 36 35 34 33 33 33 32 32 31 30 28
26 28 30 32 34 36 37 39 40 42 43 45 46 46 46 47 47 46 45 44 43 42 41 40 39 38 37 36 35 34 33 33 32 31 31 30 30 29 28 27 26 25 24
29 31 33 34 36 37 39 40 42 43 44 44 45 44 44 44 43 42 41 40 39 38 37 36 35 34 33 31 31 30 30 30 29 29 29 28 27 26 25 23 22 21 21
32 33 35 36 38 39 40 41 42 42 42 42 42 42 41 41 40 39 38 37 35 34 33 32 30 30 29 29 28 28 27 27 27 26 26 25 23 22 20 19 19 18 18
Wind_Direction
224 220 216 216 217 222 222 221 220 220 223 224 226 229 233 235 234 237 242 248 253 258 263 267 270 274 278 281 284 288 290 291 292 293 293 294 294 293 293 292 291 290 289
222 219 219 219 219 223 221 219 221 223 225 226 228 232 235 236 239 243 248 252 256 261 265 269 272 275 278 281 284 287 289 289 290 291 292 293 292 291 291 290 289 288 287
231 224 222 223 226 225 220 220 223 223 225 226 228 232 237 241 246 249 253 257 261 264 267 270 272 276 279 280 282 285 286 288 288 289 290 291 290 290 290 289 287 287 286
229 225 227 232 232 228 225 226 226 227 229 233 235 238 242 246 251 254 258 261 264 268 271 274 275 278 280 280 282 284 285 286 287 288 288 290 290 289 289 289 287 287 286
243 240 242 242 236 230 229 230 230 232 235 239 241 244 247 252 257 259 262 265 268 271 274 276 278 280 281 282 283 284 286 286 286 288 287 288 289 288 288 288 287 286 286
257 253 251 251 244 236 235 237 239 241 243 247 248 251 255 259 262 263 267 268 270 272 275 277 278 279 282 284 284 285 286 286 286 287 286 287 287 287 286 286 287 285 284
266 264 257 254 251 243 243 246 248 248 249 251 253 257 260 262 264 265 268 270 272 274 275 278 280 281 283 284 285 285 286 286 287 287 286 286 286 286 286 286 286 285 284
270 269 266 262 259 257 254 254 256 256 257 259 261 263 265 267 269 270 273 272 275 278 279 280 282 283 284 285 286 286 286 286 287 288 288 287 286 286 286 285 285 285 284
265 266 268 267 265 260 259 261 263 264 263 263 265 267 269 271 273 274 276 277 279 280 281 282 283 285 287 287 287 286 285 286 287 288 289 288 287 287 286 285 285 285 284
265 265 266 268 268 264 263 265 267 268 270 271 270 271 274 275 276 277 278 280 281 281 281 283 284 286 287 288 288 288 287 287 288 288 287 287 287 287 287 286 285 285 284
266 266 268 270 271 269 266 267 270 271 273 274 273 275 276 279 281 281 282 283 284 285 285 286 287 288 288 288 289 289 289 289 288 288 287 287 286 286 285 286 285 285 285
269 269 269 269 271 271 267 269 271 272 275 276 276 278 280 282 283 283 284 285 286 286 287 287 289 290 289 289 290 291 291 291 291 290 288 288 287 286 286 285 285 285 285
270 271 270 271 273 274 273 272 274 276 279 281 280 281 283 285 286 286 287 287 288 289 289 290 290 291 291 291 292 292 292 292 292 291 289 289 288 288 287 287 286 286 286
271 271 271 273 274 275 275 276 278 279 281 283 283 284 285 286 287 287 287 288 289 290 291 291 292 293 292 293 293 293 293 293 292 291 290 289 289 288 288 288 287 286 286
270 272 272 274 276 275 275 276 278 280 282 282 284 285 286 287 287 288 289 289 290 291 292 293 293 293 293 293 293 293 293 292 292 291 290 290 290 289 288 287 287 286 285
270 271 273 274 275 277 278 279 280 281 282 283 284 285 286 288 288 289 290 290 291 292 293 293 293 293 294 293 293 293 292 292 291 290 289 289 289 288 288 287 287 286 286
270 272 275 278 278 278 279 280 281 283 284 285 286 287 287 288 289 290 291 292 292 293 293 294 294 294 294 294 294 293 293 293 292 291 290 290 289 288 287 287 287 286 284
271 272 275 276 277 278 279 280 282 284 286 288 289 290 291 291 292 292 293 294 294 295 295 296 296 295 295 295 295 295 295 294 294 293 292 291 290 289 288 288 287 287 287
272 274 275 276 278 280 283 285 287 289 290 291 291 292 293 293 294 295 296 296 296 297 297 297 297 297 297 297 297 296 296 296 295 293 293 292 291 290 289 289 289 288 288
277 276 276 279 283 286 288 290 291 291 292 293 294 295 296 297 297 297 298 298 298 298 299 299 299 298 298 297 297 296 296 295 295 294 292 291 290 289 289 289 289 288 288
281 284 285 287 290 292 292 292 293 293 294 294 296 297 298 299 299 299 300 300 300 300 301 301 300 299 298 298 297 296 296 296 295 294 293 292 291 290 289 288 289 289 288
290 291 292 293 294 294 293 293 293 295 296 297 299 299 300 300 300 300 301 301 301 301 301 301 301 300 300 299 298 298 298 298 297 296 295 294 293 292 290 289 289 289 288
294 294 294 295 295 295 296 297 297 298 299 299 300 300 301 301 301 302 301 301 301 301 301 301 301 300 300 300 299 299 298 298 298 298 297 296 296 295 293 292 291 289 288
295 295 296 297 298 299 299 299 300 300 300 300 301 301 301 301 301 301 301 300 300 300 300 300 300 300 301 302 301 300 299 300 300 300 300 299 298 297 295 294 293 291 290
297 298 299 300 301 301 301 301 301 302 302 301 302 302 302 302 301 301 301 301 300 299 300 300 300 300 301 303 303 302 302 302 302 302 303 303 302 300 298 296 294 293 292
301 301 302 302 303 303 303 303 303 303 303 303 303 304 304 303 303 303 302 301 300 300 300 300 300 302 303 304 305 305 304 305 305 306 306 305 305 304 302 300 298 296 296
Height
5821 5822 5825 5827 5830 5833 5836 5839 5842 5845 5848 5851 5853 5856 5859 5861 5863 5865 5867 5869 5870 5872 5873 5873 5873 5874 5874 5873 5873 5872 5872 5871 5870 5870 5869 5869 5867 5867 5866 5865 5864 5863 5862
5820 5822 5824 5826 5828 5830 5833 5836 5838 5842 5845 5848 5850 5853 5855 5857 5859 5861 5863 5865 5866 5867 5868 5868 5869 5869 5869 5868 5868 5867 5866 5865 5865 5864 5863 5863 5861 5860 5859 5858 5857 5856 5855
5820 5821 5823 5825 5826 5828 5830 5833 5836 5839 5842 5844 5847 5849 5851 5853 5855 5857 5858 5860 5861 5862 5863 5863 5863 5863 5862 5862 5861 5861 5860 5859 5858 5858 5857 5855 5854 5853 5851 5850 5848 5847 5846
5820 5821 5822 5823 5824 5826 5828 5831 5834 5836 5839 5841 5843 5845 5847 5849 5850 5852 5854 5855 5856 5856 5857 5857 5857 5856 5856 5855 5854 5854 5853 5852 5851 5850 5849 5847 5846 5845 5843 5841 5840 5838 5837
5820 5820 5821 5822 5822 5824 5826 5829 5831 5834 5836 5838 5839 5841 5843 5844 5845 5846 5848 5849 5850 5850 5850 5850 5850 5849 5848 5848 5847 5846 5845 5844 5842 5841 5840 5839 5837 5835 5834 5832 5831 5829 5827
5818 5819 5819 5820 5821 5823 5825 5827 5828 5830 5832 5833 5834 5836 5838 5839 5840 5841 5841 5842 5842 5843 5843 5842 5842 5842 5841 5840 5838 5837 5836 5834 5833 5831 5830 5828 5827 5825 5823 5821 5820 5818 5817
5817 5818 5818 5818 5819 5820 5822 5824 5825 5826 5828 5829 5830 5831 5833 5833 5833 5834 5834 5834 5835 5835 5835 5834 5834 5833 5832 5830 5829 5827 5826 5824 5822 5820 5819 5817 5816 5814 5811 5810 5807 5806 5804
5816 5816 5816 5817 5817 5818 5820 5821 5822 5823 5823 5824 5825 5826 5827 5827 5827 5827 5827 5827 5827 5827 5826 5825 5825 5823 5822 5821 5819 5817 5815 5813 5811 5809 5808 5806 5804 5801 5799 5797 5795 5793 5792
5813 5814 5814 5814 5814 5815 5816 5816 5817 5817 5818 5818 5819 5820 5820 5820 5820 5820 5820 5820 5819 5819 5817 5816 5815 5814 5812 5810 5808 5807 5805 5802 5800 5798 5795 5793 5791 5788 5786 5783 5781 5779 5778
5810 5810 5810 5810 5811 5811 5812 5812 5812 5813 5813 5813 5813 5813 5813 5813 5813 5812 5812 5811 5810 5809 5808 5807 5805 5803 5802 5799 5797 5795 5793 5790 5788 5785 5783 5780 5778 5775 5772 5769 5767 5764 5762
5805 5806 5806 5806 5806 5806 5807 5807 5807 5807 5807 5807 5807 5806 5806 5806 5805 5804 5803 5802 5801 5800 5798 5796 5794 5792 5790 5788 5785 5783 5780 5778 5775 5772 5770 5767 5764 5761 5758 5755 5752 5749 5746
5800 5801 5801 5801 5801 5801 5801 5801 5801 5801 5801 5800 5800 5799 5799 5798 5797 5796 5795 5793 5791 5790 5788 5786 5783 5781 5779 5776 5773 5770 5767 5764 5761 5759 5756 5753 5750 5746 5743 5740 5736 5733 5730
5795 5795 5795 5795 5795 5795 5794 5794 5794 5794 5793 5793 5792 5791 5791 5790 5788 5787 5785 5783 5781 5779 5777 5774 5772 5769 5767 5764 5761 5757 5754 5751 5747 5744 5741 5738 5734 5730 5727 5723 5720 5717 5713
5789 5788 5788 5789 5788 5788 5787 5787 5787 5786 5786 5785 5784 5783 5782 5781 5779 5777 5775 5773 5771 5768 5766 5763 5760 5757 5754 5751 5747 5744 5740 5736 5733 5729 5725 5722 5718 5714 5710 5707 5703 5700 5696
5782 5781 5781 5781 5781 5781 5780 5780 5779 5778 5778 5777 5775 5774 5772 5771 5769 5767 5765 5762 5760 5757 5754 5751 5748 5744 5741 5737 5733 5729 5725 5721 5717 5713 5709 5705 5701 5697 5693 5689 5685 5681 5678
5774 5774 5774 5774 5773 5773 5772 5772 5771 5770 5769 5767 5766 5765 5763 5761 5759 5756 5754 5751 5748 5745 5742 5738 5734 5731 5727 5722 5718 5714 5709 5705 5701 5696 5692 5687 5683 5679 5675 5671 5667 5663 5660
5767 5767 5767 5766 5765 5765 5764 5763 5762 5761 5759 5758 5756 5755 5753 5751 5748 5746 5743 5739 5736 5732 5728 5724 5719 5715 5710 5706 5701 5697 5692 5687 5683 5678 5674 5669 5665 5661 5657 5653 5649 5646 5643
5759 5759 5758 5758 5757 5756 5755 5754 5753 5752 5750 5749 5747 5745 5743 5740 5737 5734 5730 5726 5722 5718 5713 5709 5704 5699 5694 5689 5685 5680 5675 5670 5666 5661 5657 5652 5648 5644 5640 5636 5633 5630 5627
5751 5751 5750 5750 5749 5748 5747 5746 5744 5743 5741 5739 5737 5735 5732 5729 5725 5721 5717 5712 5708 5703 5698 5693 5688 5683 5678 5673 5668 5663 5658 5654 5649 5645 5641 5636 5632 5628 5625 5622 5619 5616 5613
5744 5743 5742 5742 5741 5739 5738 5737 5735 5733 5731 5728 5725 5722 5719 5715 5711 5707 5703 5698 5693 5688 5683 5677 5672 5667 5662 5658 5653 5648 5643 5638 5634 5630 5626 5622 5618 5614 5611 5608 5605 5602 5600
5737 5736 5735 5734 5733 5731 5730 5727 5725 5723 5720 5717 5714 5710 5706 5702 5697 5692 5688 5683 5678 5672 5667 5662 5656 5651 5647 5642 5638 5633 5628 5624 5619 5615 5611 5608 5604 5601 5598 5595 5592 5590 5587
5730 5729 5728 5727 5725 5723 5720 5718 5715 5712 5708 5705 5701 5697 5692 5688 5683 5678 5673 5668 5662 5657 5652 5647 5642 5637 5632 5628 5624 5619 5615 5611 5606 5602 5599 5595 5592 5589 5586 5583 5581 5578 5576
5723 5722 5720 5718 5716 5713 5711 5707 5704 5700 5696 5692 5688 5683 5679 5674 5669 5664 5659 5654 5648 5643 5638 5634 5629 5624 5620 5616 5611 5607 5603 5599 5595 5591 5588 5585 5582 5579 5576 5573 5571 5569 5567
5716 5714 5711 5709 5706 5703 5700 5696 5692 5688 5684 5679 5675 5670 5665 5660 5655 5650 5645 5641 5636 5631 5626 5622 5617 5613 5609 5605 5600 5596 5592 5589 5585 5582 5579 5575 5572 5570 5567 5565 5563 5561 5559
5708 5705 5702 5699 5696 5692 5688 5684 5680 5675 5670 5666 5661 5656 5651 5646 5642 5637 5633 5628 5624 5619 5615 5611 5607 5603 5599 5595 5591 5587 5584 5580 5577 5574 5570 5567 5564 5562 5559 5557 5555 5554 5552
5698 5695 5692 5689 5685 5681 5676 5672 5667 5662 5657 5653 5648 5643 5639 5634 5629 5625 5621 5617 5613 5609 5605 5601 5597 5594 5591 5587 5583 5580 5576 5573 5570 5566 5563 5560 5557 5555 5553 5551 5549 5548 5546